Showing default

QIANFAN-56, 62786

Orbit data source: Space-Track

QIANFAN-56, 62786 is a Chinese payload satellite in LEO that was launched on Thu, 23 Jan 2025 UTC via a CHANG ZHENG 6A launch vehicle from the Taiyaun Space Center, China (TSC). Payload-class satellites include a variety of spacecraft equipped with specific instruments for various scientific and technological missions. These include communications satellites like Starlink; space stations such as the ISS; scientific satellites like the Hubble; Earth observation satellites from companies like Planet Labs, Umbra, and HawkEye 360; GPS; miniature CubeSats for education and research; and military/defense satellites.

Loading next visibility...
Identifier
62786, 2025-016B
Orbit
LEO
Country
Flag of CNCN / PRC
Related business
Manufacturer
SECM
Mission
Operational Commercial Communications
Bus & Motor
QIANFAN, Unknown motor
Mass
267 kg wet, ~267 kg dry
Launch date (UTC)
2025-01-23 (1 year ago)
Launch vehicle
CHANG ZHENG 6A
Launch site
Taiyaun Space Center, China (TSC)
Object type
Payload
Rocket body
Debris
Shape & HBR
Box + 1 Pan, 1.1 m
Radar Cross Section
13.200 m², Large (>1 m²)

Expand to show TLE details & history
Last TLE update: 4 hours ago

TLE from 4 hours ago
0 QIANFAN-56
1 62786U 25016B   26036.82176778  .00000130  00000-0  18307-3 0  9992
2 62786  88.9710  97.3437 0016234 184.4386 175.6624 13.50995507 54674
Epoch: 2026-02-05T19:43Z
TLE epoch observation values (Epoch: 2026-02-05T19:43:20.736Z)
Latitude
0.00001°
Longitude
25.53881°
Altitude
1,083.608 km
Speed
7.304 km/s
True Right ascension
06h 29m 22s
True Declination
0° 00' 00"
Sunlit
Object was in full shadow at epoch
Visualization orbit readout
Latitude
Unknown
Longitude
Unknown
Altitude
Unknown
Speed
Unknown
Apparent Right ascension
Unknown
Apparent Declination
Unknown
Sunlit
N/A
Visualization observer readout
Local Sidereal Time
01:58:37
Azimuth
Unknown
Elevation
Unknown
Doppler factor
Unknown
Orbital elements
Apogee altitude
1,077.734 km
Perigee altitude
1,053.565 km
Semi-major axis
7,443.786 km
Eccentricity
0.00162
Inclination
88.971°
RAAN
97.3437°
Arg. of periapsis
184.4386°
True anomaly
175.67644°
Mean anomaly
175.6624°
Eccentric anomaly
175.66942°
Mean motion
3.3795 °/min
Orbital period
106.52 mins
BSTAR
0.00018307
Loading maneuver chart data...
Computing Atmospheric mass density...
Loading historical data...
Loading historical data...
Loading historical data...
Loading historical data...
Loading historical data...
Loading historical data...
Loading historical data...

Documentation

Showing up to 5 results
|